This is the latest recevied weather packets stored in our database for station/object K0APR. If no packets are shown the sender has not sent any weather packets the latest 10 day(s).
| Time | Temp. | Humidity | Pressure | Rain* | Wind** | Luminosity | Snow |
|---|---|---|---|---|---|---|---|
| 1777504947 | 13.89° C | 44% | 1016.1 hPa | 0 mm | - | 219 W/m² | - |
| 1777504644 | 13.33° C | 44% | 1016.5 hPa | 0 mm | - | 219 W/m² | - |
| 1777504341 | 12.78° C | 44% | 1016.5 hPa | 0 mm | - | 262 W/m² | - |
| 1777504041 | 13.33° C | 44% | 1016.5 hPa | 0 mm | - | 137 W/m² | - |
| 1777503738 | 13.33° C | 45% | 1016.5 hPa | 0 mm | - | 161 W/m² | - |
| 1777503435 | 13.33° C | 43% | 1016.5 hPa | 0 mm | - | 331 W/m² | - |
| 1777503130 | 13.33° C | 43% | 1016.1 hPa | 0 mm | - | 250 W/m² | - |
| 1777502828 | 12.78° C | 43% | 1016.5 hPa | 0 mm | - | 352 W/m² | - |
| 1777502525 | 12.78° C | 46% | 1016.5 hPa | 0 mm | - | 179 W/m² | - |
| 1777502222 | 13.33° C | 46% | 1016.5 hPa | 0 mm | - | 170 W/m² | - |
| 1777501919 | 13.33° C | 46% | 1016.5 hPa | 0 mm | - | 174 W/m² | - |
| 1777501616 | 12.78° C | 44% | 1016.5 hPa | 0 mm | - | 232 W/m² | - |
| 1777501313 | 12.78° C | 46% | 1016.5 hPa | 0 mm | - | 229 W/m² | - |
| 1777501011 | 12.78° C | 44% | 1016.5 hPa | 0 mm | - | 171 W/m² | - |
| 1777500709 | 12.78° C | 44% | 1016.8 hPa | 0 mm | - | 175 W/m² | - |
| 1777500405 | 12.78° C | 45% | 1016.5 hPa | 0 mm | - | 191 W/m² | - |
| 1777500101 | 13.33° C | 44% | 1016.8 hPa | 0 mm | - | 226 W/m² | - |
| 1777499798 | 13.33° C | 45% | 1016.5 hPa | 0 mm | - | 252 W/m² | - |
| 1777499494 | 12.78° C | 46% | 1016.5 hPa | 0 mm | - | 204 W/m² | - |
| 1777499193 | 13.33° C | 43% | 1016.5 hPa | 0 mm | - | 163 W/m² | - |
| 1777498889 | 13.33° C | 41% | 1016.5 hPa | 0 mm | - | 154 W/m² | - |
| 1777498586 | 13.33° C | 41% | 1016.5 hPa | 0 mm | - | 133 W/m² | - |
| 1777498282 | 13.33° C | 39% | 1016.8 hPa | 0 mm | - | 144 W/m² | - |
| 1777497981 | 12.78° C | 41% | 1016.8 hPa | 0 mm | - | 132 W/m² | - |
| 1777497676 | 13.33° C | 39% | 1016.5 hPa | 0 mm | - | 115 W/m² | - |
* Rain latest hour (hover to see other rain measurements)
** Current wind speed in m/s (hover to see current wind gust speed)